SNUGLITE-II (52899 NORAD) Tracking and Keplerian Element Data

This shows tracking and keplerian element data for the satellite.

Feedback or suggestion? Click here.




ElementValue
Catalog52899
NameSNUGLITE-II
Epoch Orbit1250
Epoch Day270.04410047
Epoch Year2022
RAAN57.9761
Inclination98.033
Eccentricity0.0007511
Argument of Perigee327.043
Mean Anonmoly33.0298
Mean Motion14.58433684
Decay Rate6.24E-06
L11 52899U 22065F 22270.04410047 .00000624 00000+0 14417-3 0 9992
L22 52899 98.0330 57.9761 0007511 327.0430 33.0298 14.58433684 12505

Live tracking and technical data element details for SNUGLITE-II (NORAD 52899). SNUGLITE-II can be tracked NOW for your location showing map with azimuth and elevation plus other details from your city location.

Track the satellite on the map from your city or location and see movement details for azimuth, elevation, latitude, longitude, range, height, and movement on the map or in text.







IsCatalogInMostPopularTable: catalog: 52899, numindb: 6
Update: records affected: 1



GetName: 52899 SNUGLITE-II

Hit Count: updated at: Thu, 06 Oct 2022 04:27:31 GMT